Theta_e
336 325 325 323 308 307 306 306 310 308 309 314 315 313 313 316 314 314 342 344 340 343 357 362 362 362 363 364 364 364 363 363 363 362 362 362 363 363 362 361 359 358 355 352 348 344 341 338 336
332 323 322 317 304 302 305 308 306 310 311 314 315 314 314 313 320 326 327 344 340 348 356 357 361 361 362 363 363 362 363 363 363 363 362 363 362 362 361 360 358 356 353 349 345 342 340 338 338
327 324 314 309 305 301 302 307 309 310 312 313 313 317 316 316 326 331 341 343 341 350 355 357 361 361 362 362 361 361 362 362 362 363 363 362 362 361 360 359 358 354 351 347 344 342 342 341 340
326 319 314 305 302 303 303 309 310 310 312 314 314 314 320 327 330 341 344 345 341 348 352 361 360 360 361 361 360 360 361 361 361 362 362 361 361 359 358 357 356 355 351 346 345 346 345 343 342
326 319 306 304 304 304 307 309 310 309 311 312 314 314 318 326 333 342 345 345 339 345 349 362 360 360 361 361 360 359 359 359 359 360 360 360 358 357 356 356 355 354 352 350 348 347 347 347 344
316 316 305 302 304 305 307 310 311 311 311 313 314 316 319 327 331 338 343 343 340 343 348 359 362 360 359 360 359 358 357 357 357 358 358 357 357 356 356 355 354 353 352 351 349 348 348 348 347
313 310 305 306 306 306 309 313 310 312 313 313 318 314 321 324 330 339 341 341 340 343 346 357 360 362 360 359 358 358 357 357 357 356 356 356 356 355 355 354 354 353 352 351 350 349 349 348 347
315 312 306 307 305 306 312 312 314 314 313 319 320 316 317 322 326 335 341 339 339 342 344 352 356 358 359 358 359 358 358 358 357 357 357 357 356 355 355 353 352 353 352 351 350 350 349 348 348
316 307 304 306 306 309 314 311 315 317 315 317 318 319 321 323 325 329 335 336 337 340 343 348 350 353 355 353 356 358 359 359 358 358 357 355 350 354 353 350 352 352 353 352 351 350 349 348 346
309 305 306 311 312 311 314 313 313 311 312 314 317 320 321 321 322 324 326 335 334 337 340 345 349 350 351 347 353 356 355 356 355 355 356 354 350 351 348 351 353 352 352 352 351 351 350 346 337
308 303 308 310 313 315 313 313 315 311 308 312 313 316 318 319 321 321 324 329 336 335 338 342 350 353 351 348 349 351 350 351 353 356 357 356 350 353 352 349 352 350 350 344 345 345 341 339 338
302 306 308 309 312 312 311 314 312 312 312 313 313 314 316 317 318 319 321 324 330 337 335 339 347 353 355 349 348 349 347 349 350 353 358 356 353 353 352 347 348 349 346 347 345 342 343 342 341
302 304 305 308 309 310 312 310 310 311 313 311 312 313 314 316 317 320 322 327 328 333 339 339 343 350 353 354 348 349 349 348 351 352 356 355 352 351 350 349 347 346 346 344 344 342 341 342 342
303 303 304 305 305 307 304 306 307 309 310 309 314 315 313 313 316 318 321 324 328 333 336 341 341 349 350 352 355 351 350 349 348 348 350 356 352 352 347 348 347 345 344 342 342 341 340 341 340
303 299 301 302 303 303 306 301 302 309 309 309 310 316 315 313 314 315 318 321 324 327 333 341 346 348 350 349 350 349 346 347 345 345 353 353 355 355 353 346 345 344 345 346 343 342 342 340 341
298 299 295 302 303 303 303 297 304 307 306 307 308 311 312 312 313 315 317 320 324 326 329 338 343 345 350 351 349 347 343 343 342 343 345 350 354 353 351 343 343 344 342 340 340 340 339 340 341
298 292 295 297 301 301 300 298 305 305 305 304 305 308 310 310 312 315 316 318 322 325 327 333 339 348 349 351 347 345 349 343 341 342 343 345 347 348 345 340 342 347 340 339 339 338 341 341 343
293 293 294 295 300 300 299 299 303 304 304 304 304 306 308 310 310 313 316 319 320 324 327 329 333 346 352 349 350 345 343 343 341 340 341 348 345 344 346 340 343 346 340 339 340 338 345 344 345
296 295 294 296 299 298 298 299 301 304 304 303 305 305 305 309 311 312 314 317 320 324 326 328 329 334 346 346 343 345 344 344 341 340 346 346 345 342 345 341 344 346 343 336 345 345 347 346 347
296 294 294 296 299 298 298 297 301 303 303 304 305 305 306 307 308 310 313 317 319 322 325 326 329 329 333 339 350 351 350 348 347 346 347 348 346 345 346 348 344 344 341 347 346 349 345 347 349
295 294 294 294 297 298 296 295 298 300 302 303 305 305 305 305 305 310 313 314 317 318 320 323 326 329 332 335 336 345 350 350 350 350 347 349 347 348 350 348 347 348 348 346 350 351 349 345 346
292 297 295 294 293 289 296 288 295 298 299 301 304 305 306 308 308 309 311 312 314 316 320 323 326 327 329 331 333 339 336 339 342 349 354 354 352 350 349 352 350 352 353 355 352 352 352 350 344
294 297 295 294 292 292 292 289 294 297 296 299 301 303 306 308 309 310 310 313 314 317 319 321 325 328 329 331 334 330 335 332 335 340 352 362 362 357 352 354 355 357 354 357 357 355 353 350 345
298 296 295 295 293 286 291 290 292 294 297 299 301 301 303 307 309 310 311 313 313 316 318 322 324 325 328 329 332 333 333 336 332 336 337 341 348 353 355 354 356 359 357 355 355 357 353 351 351
297 293 286 286 286 285 292 288 292 296 298 299 299 302 305 308 309 309 310 311 313 315 317 320 321 324 326 327 329 330 332 335 337 340 335 341 338 344 354 359 360 356 360 358 357 355 354 351 349
294 293 287 281 283 286 292 286 292 298 301 300 302 305 306 306 309 310 311 313 313 315 318 319 321 323 324 326 327 329 331 330 332 338 336 334 338 342 355 358 360 359 356 356 355 353 350 352 349
293 289 295 289 290 286 289 292 297 299 299 300 302 304 304 306 308 309 312 314 315 316 318 321 322 324 326 327 328 329 331 332 333 343 349 340 348 343 348 353 355 356 356 355 354 348 350 351 351
294 297 288 289 281 280 287 288 291 294 296 298 300 301 304 306 307 309 310 313 315 317 319 320 321 321 326 328 329 329 330 331 334 337 343 346 350 349 350 350 353 354 353 352 353 352 353 352 351
292 290 292 292 290 284 282 288 298 297 298 299 300 302 305 306 307 309 310 312 314 316 317 319 319 320 321 326 330 332 331 332 334 336 339 343 350 347 345 347 350 350 350 352 354 355 353 352 352
296 292 292 287 285 289 288 287 300 300 300 301 302 304 306 307 308 309 310 311 312 313 315 317 319 319 319 322 325 329 332 333 334 337 339 342 343 345 345 346 348 348 348 353 354 353 352 351 349
Wind_Speed
11 5 4 5 8 7 13 6 3 8 7 3 1 7 6 12 10 4 4 7 11 20 22 23 20 18 16 17 17 17 17 17 17 17 17 16 15 15 14 13 12 11 10 10 10 9 9 8 8
8 4 5 3 9 10 11 5 11 4 5 3 7 8 9 9 8 12 9 8 13 18 20 24 21 20 17 16 18 18 18 17 18 17 16 16 15 15 14 13 13 12 12 11 11 10 10 10 9
5 5 6 5 9 12 9 3 8 5 4 2 3 4 4 2 12 13 6 3 15 19 19 21 22 20 17 15 16 18 18 18 18 18 17 17 15 15 14 14 13 13 13 12 12 11 11 11 10
4 5 5 9 12 4 7 5 3 4 1 3 4 7 1 6 17 15 18 11 17 20 21 22 24 21 19 16 15 16 17 18 18 18 17 16 16 15 14 13 12 12 12 13 13 12 11 11 10
5 4 9 10 13 2 7 10 9 10 8 8 3 4 4 11 16 16 13 12 20 21 21 23 24 21 20 17 16 15 16 17 18 18 17 17 16 15 15 14 13 12 11 11 11 11 10 10 9
8 5 10 12 15 9 8 9 9 7 6 7 8 8 2 12 18 17 9 9 18 19 19 20 22 20 20 19 16 15 15 15 16 17 17 16 16 15 14 13 13 12 11 11 10 9 8 8 9
13 11 16 17 15 9 12 6 12 10 5 4 7 9 2 15 16 12 8 6 15 18 17 17 21 19 17 16 16 14 12 12 12 12 13 13 13 12 12 12 11 11 11 10 11 10 10 9 8
10 13 21 18 16 19 10 9 7 11 4 4 3 2 9 13 14 9 4 5 12 16 17 18 18 19 19 17 13 12 11 9 8 6 6 9 9 9 9 8 9 10 10 10 10 10 9 9 9
13 14 18 24 21 15 8 11 9 5 9 7 4 8 10 14 14 9 5 7 11 13 15 16 19 18 17 17 15 12 12 11 9 8 7 8 10 12 13 12 11 10 10 10 10 10 9 9 9
14 16 27 21 19 18 14 17 13 6 14 12 11 5 11 16 14 12 9 2 12 13 15 14 16 17 17 13 15 15 15 13 12 13 13 12 12 10 10 10 8 11 11 10 11 11 10 10 9
16 23 20 22 15 18 20 17 10 12 12 8 8 11 14 14 13 10 6 6 7 15 13 14 13 14 16 14 11 9 9 10 10 15 13 12 9 8 8 7 8 9 13 9 12 11 10 12 9
17 17 19 19 18 15 18 17 17 14 14 6 10 10 13 13 14 14 9 3 4 9 15 13 13 13 14 11 11 11 11 10 9 12 14 10 8 8 8 8 8 9 8 10 9 8 10 10 11
16 19 11 15 19 19 18 20 18 19 9 8 8 9 12 14 13 11 6 2 3 8 10 16 17 15 13 13 10 9 10 10 11 11 13 11 10 8 9 8 8 7 8 8 8 9 8 9 10
4 15 13 15 15 16 18 22 19 21 6 11 21 15 11 11 10 8 7 3 4 4 7 10 15 15 15 13 10 10 10 10 10 10 11 15 11 9 10 9 9 8 8 7 7 8 8 9 9
10 12 14 17 18 19 15 22 25 17 8 16 17 19 13 9 8 4 6 3 5 6 3 7 11 15 16 17 15 10 11 11 11 11 11 14 14 11 11 8 8 7 7 9 7 7 8 9 9
11 14 17 19 18 17 14 19 6 7 6 10 10 10 10 8 8 3 2 4 5 5 6 5 4 12 13 13 11 11 12 12 11 10 10 14 14 14 11 8 8 7 6 8 6 6 9 9 9
13 14 17 10 5 8 15 17 15 4 4 6 6 10 8 7 7 2 3 4 6 5 7 6 1 9 11 8 11 9 8 11 11 10 11 14 14 15 9 11 7 9 8 8 5 5 9 9 9
11 11 9 13 11 12 15 14 8 8 7 10 10 10 11 10 7 4 6 7 5 5 7 7 5 6 10 5 10 9 9 9 10 12 12 13 13 16 13 7 9 8 7 6 7 10 9 10 9
8 10 10 6 1 11 15 15 13 14 14 14 13 13 13 13 6 4 6 8 8 8 6 7 7 5 6 4 8 7 6 7 10 13 16 15 14 15 13 10 12 9 10 12 9 9 10 10 9
12 13 12 6 8 9 14 18 16 17 16 16 16 14 12 8 6 5 6 7 8 8 7 7 6 3 4 7 9 3 5 6 10 12 13 16 16 16 14 13 11 10 11 11 11 12 10 10 9
13 13 9 10 6 14 14 21 21 8 7 8 7 5 6 5 2 1 5 5 8 9 9 7 7 7 6 8 6 3 5 6 12 10 10 14 18 17 17 17 13 13 12 10 11 13 16 11 9
13 10 8 9 10 9 3 7 8 10 7 9 9 8 4 1 5 3 3 5 8 8 9 9 7 7 7 4 6 8 9 12 10 2 10 15 16 17 17 16 14 14 11 10 11 12 13 14 10
12 2 9 9 12 15 15 11 12 5 11 14 6 5 3 4 3 0 2 4 7 9 9 7 10 9 6 5 8 8 10 10 11 11 15 12 9 14 16 16 15 13 11 11 12 13 14 11 11
2 10 12 12 13 13 19 11 10 9 11 12 7 3 2 4 2 2 4 5 6 7 8 9 11 9 8 7 8 10 12 12 12 11 12 11 9 10 14 15 14 14 12 13 13 14 14 14 10
13 12 11 12 11 9 7 7 13 5 4 2 4 5 5 2 6 7 6 7 7 7 8 8 9 12 11 10 10 11 12 13 14 14 11 12 11 11 11 13 12 13 13 15 13 13 13 14 11
16 16 11 10 10 9 13 7 4 1 7 4 5 2 4 3 7 9 9 8 8 7 9 10 12 12 12 12 12 11 12 9 11 12 12 12 12 12 11 13 12 15 14 14 13 10 11 12 10
7 12 6 10 15 12 14 10 9 12 9 7 6 6 3 5 8 11 11 9 9 8 7 8 11 12 13 14 12 12 12 13 13 15 12 11 12 11 11 13 15 16 16 16 14 11 13 10 11
9 6 8 9 11 18 12 11 7 13 9 5 5 4 8 10 11 11 11 9 8 11 11 11 9 10 11 14 13 12 13 14 14 14 15 14 12 13 13 15 16 16 16 16 15 12 12 12 10
7 13 13 9 11 10 12 7 8 2 4 3 4 6 13 15 14 13 13 11 10 11 12 12 14 14 11 11 13 14 15 15 15 14 15 14 13 14 16 15 16 17 17 16 15 13 14 14 12
16 17 18 11 11 10 14 16 13 7 5 5 11 13 14 12 13 13 13 13 13 14 14 13 13 15 15 13 13 15 15 16 16 16 17 16 15 16 17 17 17 17 17 16 16 15 14 14 13
Wind_Direction
279 311 279 238 234 242 245 174 341 148 169 157 102 262 276 316 307 3 56 172 157 158 157 165 163 165 170 166 158 156 157 156 158 158 159 159 155 149 147 145 145 145 143 141 137 137 133 130 126
318 284 231 264 255 221 232 151 211 186 48 302 243 250 246 271 347 330 297 144 156 155 160 166 168 165 172 170 163 161 160 160 159 161 161 159 153 152 148 147 153 156 155 155 150 148 145 147 142
274 272 266 260 241 246 279 115 247 114 336 256 264 307 328 14 356 315 27 264 172 165 167 165 169 167 170 174 172 165 165 164 163 162 165 162 157 154 154 159 162 165 165 163 160 158 154 157 154
229 194 219 250 251 129 247 23 94 233 42 203 330 270 274 73 348 328 299 270 188 175 171 154 167 170 169 176 178 173 171 169 167 167 166 164 162 159 159 163 167 172 171 172 169 165 163 160 158
218 255 254 246 252 249 247 266 265 268 286 269 326 301 307 6 359 343 311 219 190 179 176 163 166 173 170 180 180 183 179 176 174 170 170 167 165 165 167 170 173 176 177 177 177 169 167 166 162
229 274 245 239 240 195 241 249 239 258 269 266 259 313 110 10 7 353 332 200 189 178 177 167 168 173 175 178 185 187 188 186 183 176 173 172 169 171 172 174 177 179 180 182 181 177 175 172 168
243 233 248 257 256 223 247 206 233 240 254 268 334 290 350 4 8 10 336 213 195 176 180 168 175 175 179 181 185 188 192 195 191 190 177 173 171 173 175 180 183 186 184 186 186 183 183 183 184
242 250 254 244 249 246 209 234 240 237 235 5 282 343 338 350 348 350 20 207 198 180 184 173 181 181 186 186 187 190 189 193 197 194 190 169 166 170 181 182 191 197 193 190 194 193 192 195 192
236 239 242 239 237 252 224 227 213 250 259 280 286 301 342 333 332 344 30 183 194 188 189 186 180 183 191 189 183 188 193 191 187 186 185 173 200 187 182 204 170 200 206 198 198 201 202 207 208
218 233 243 247 250 248 257 222 231 248 241 254 267 235 326 327 327 340 356 324 190 198 199 196 189 185 190 192 191 201 200 208 204 203 196 214 210 203 211 191 179 195 210 210 205 202 204 216 230
220 245 252 247 251 256 256 228 224 245 234 257 289 303 312 321 322 321 316 356 239 198 201 207 195 189 199 196 191 190 204 201 206 212 206 211 205 203 205 203 201 212 205 217 201 205 222 222 236
241 247 256 265 248 241 248 254 233 249 264 354 297 304 304 305 312 315 330 316 310 228 202 196 202 203 206 199 198 196 201 198 205 205 205 212 212 206 219 215 208 205 213 221 228 216 226 225 231
238 252 234 252 255 252 262 254 256 260 247 270 272 304 309 303 296 294 316 306 294 287 215 204 195 198 203 219 201 213 206 201 207 206 203 213 211 208 218 222 228 219 218 215 236 240 232 226 232
287 249 247 242 241 243 251 260 256 254 198 235 236 250 310 319 316 296 278 340 293 279 289 223 207 196 192 205 206 197 213 213 214 215 214 210 218 206 218 215 224 232 232 231 234 241 245 235 240
251 251 232 237 242 249 253 256 250 252 262 250 253 235 248 291 295 318 323 358 358 317 309 278 221 198 211 209 201 213 205 214 209 222 213 214 216 214 225 217 226 232 239 249 234 251 243 256 242
247 236 252 231 228 231 232 258 30 148 237 244 258 241 240 245 266 274 327 13 26 7 332 285 229 221 200 223 213 218 217 209 212 216 221 219 220 216 208 223 232 226 229 243 240 235 246 247 246
217 254 221 206 216 248 217 245 187 176 235 241 263 241 219 217 240 255 310 4 10 23 3 344 281 261 188 216 226 212 219 224 224 213 223 217 219 219 216 206 197 210 223 221 214 234 255 256 252
248 224 232 258 177 224 237 243 225 222 249 258 263 245 249 235 231 274 319 342 355 8 15 12 359 335 4 235 250 205 195 224 225 224 228 214 216 216 210 220 210 194 217 202 224 213 216 246 250
275 266 261 243 176 265 256 254 253 253 247 237 248 248 250 247 263 270 316 323 332 360 352 358 7 34 243 202 234 214 210 246 252 235 221 221 212 219 214 209 199 197 213 205 175 236 229 236 238
238 244 242 249 258 268 273 269 273 264 253 248 240 228 245 256 257 278 315 340 349 341 1 346 348 348 278 229 228 256 165 199 245 238 227 220 215 209 211 216 204 180 219 215 208 212 229 231 222
233 249 255 264 308 271 267 272 245 221 225 212 214 227 229 237 266 304 332 353 351 347 344 349 332 321 311 311 305 332 275 262 249 220 242 227 221 214 210 211 210 200 216 208 209 212 218 230 216
259 207 262 267 264 275 114 290 187 209 184 184 175 179 157 126 195 241 288 331 346 342 333 331 341 325 285 316 273 257 254 233 222 195 285 237 215 222 215 215 205 214 206 216 201 211 218 228 224
274 199 242 266 270 281 260 243 248 194 196 175 155 140 117 130 124 99 303 321 323 330 333 329 325 320 303 296 263 259 240 252 249 242 235 232 222 219 220 211 209 211 216 209 214 208 207 213 241
221 227 230 248 257 252 242 236 230 190 213 178 170 240 279 209 237 318 308 302 313 320 324 328 321 313 301 279 267 257 259 259 263 246 241 239 224 218 225 216 210 213 208 213 205 209 207 224 216
221 238 253 227 203 246 97 250 266 158 172 223 269 277 282 295 269 302 285 296 304 300 318 321 323 308 306 295 287 279 271 269 265 262 258 253 240 226 217 215 210 209 212 204 203 201 213 211 213
224 252 265 284 272 273 161 241 148 192 192 254 254 218 177 307 329 319 318 311 284 290 308 320 319 315 307 299 292 287 280 270 265 254 259 257 243 235 217 202 205 205 212 205 195 201 215 205 207
226 236 302 292 285 281 262 237 222 216 221 202 189 199 228 328 330 325 325 315 309 294 289 314 314 312 304 301 297 291 282 271 271 271 260 245 246 239 225 201 202 206 204 203 185 206 203 194 202
248 350 218 206 259 256 243 231 240 166 178 193 218 281 321 297 297 308 306 308 298 300 298 293 304 303 301 301 300 291 288 279 269 265 259 257 252 235 233 206 204 198 198 194 187 196 190 188 194
201 237 251 285 272 273 279 273 85 134 214 268 279 284 297 294 289 294 297 297 294 288 290 298 302 306 297 279 287 297 293 287 278 267 263 258 248 237 228 214 206 197 193 190 191 190 171 188 192
225 242 256 241 240 231 261 269 289 224 208 199 279 296 299 294 286 290 290 294 293 293 289 288 293 296 301 297 286 287 292 287 281 265 260 253 242 229 223 212 202 192 190 189 188 183 176 192 195